Location: Alincthun
(50.7310°N, 1.8022°E)
Time: 04:45:03
(UTC+00:00)

Daily predictions for brighter satellites

Satellite Brightness Start Highest point End
(mag) Time Altitude Azimuth Time Altitude Azimuth Time Altitude Azimuth
ATLAS 2AS CENTAUR R/B 4.2 02:23:03 34° N 02:23:03 34° N 02:28:34 10° NE
Cosmos 2219 Rocket 4.4 02:33:02 21° NE 02:33:02 21° NE 02:34:49 10° NE
Cosmos 2360 Rocket 4.5 02:44:16 18° NNE 02:44:16 18° NNE 02:45:47 10° NNE
Cosmos 1943 Rocket 4.3 02:49:41 19° NNE 02:50:44 20° NE 02:54:47 10° E
Lacrosse 5 4.2 02:59:21 19° ENE 02:59:21 19° ENE 03:00:55 10° E
SL-16 R/B 4.4 02:59:39 18° ESE 03:00:28 19° E 03:04:15 10° ENE
SL-16 R/B 4.5 03:11:43 16° N 03:11:43 16° N 03:13:22 10° NNE
Cosmos 2369 Rocket 4.3 03:08:02 16° N 03:11:04 23° NE 03:15:33 10° E
USA 215 3.5 03:14:29 10° ENE 03:19:59 64° NE 03:19:59 64° NE
CZ-4C R/B 3.0 03:29:40 49° ENE 03:29:40 49° ENE 03:34:15 10° NE
Cosmos 2333 Rocket 3.6 03:31:49 32° N 03:31:49 32° N 03:34:59 10° NNE
USA 229 DEB 4.4 03:35:49 47° SSE 03:35:49 47° SSE 03:41:00 10° SSE
USA 229 4.3 03:35:52 48° SSE 03:35:52 48° SSE 03:41:05 10° SE
NOSS 3-1 (A) 3.9 03:39:16 71° NW 03:40:19 87° NE 03:48:50 10° SE
ATLAS CENTAUR R/B 3.3 03:43:09 29° E 03:43:09 29° E 03:46:18 10° ENE
ADEOS II 4.3 03:39:55 10° N 03:41:04 16° N 03:41:04 16° N
Cosmos 1934 Rocket 4.1 03:45:04 10° N 03:51:22 75° ENE 03:57:43 10° SSE
MSX 3.9 03:45:50 10° NNE 03:51:32 73° E 03:51:32 73° E
IDEFIX/ARIANE 42P 3.6 03:47:09 10° NNE 03:50:26 39° N 03:50:26 39° N
Cosmos 2322 Rocket 4.3 03:56:25 15° NNW 03:56:25 15° NNW 03:58:47 10° N
Cosmos 2237 Rocket 2.4 04:03:01 61° N 04:03:01 61° N 04:07:47 10° NNE
Cosmos 2251 Rocket 4.4 04:01:11 36° SSE 04:02:41 46° ESE 04:07:44 10° NE
BREEZE M DEB (TANK) 4.4 04:06:13 31° E 04:06:13 31° E 04:09:13 10° E
COSMO-SKYMED 1 4.4 04:03:12 10° SE 04:06:59 30° ENE 04:10:48 10° N
Meteor 1-31 Rocket 4.4 04:04:40 10° NNE 04:08:08 32° E 04:08:25 31° ESE
Cosmos 1605 Rocket 4.2 04:05:17 10° N 04:11:35 70° ENE 04:17:43 10° SSE
PAYLOAD A 3.9 04:07:37 10° NNE 04:12:27 77° E 04:12:27 77° E
Cosmos 2219 Rocket 3.4 04:14:45 29° NNW 04:14:45 29° NNW 04:18:36 10° NNE
ATLAS 2AS CENTAUR R/B 4.2 04:10:29 21° NW 04:14:31 32° N 04:21:10 10° ENE
GEOS 3 Rocket 4.5 04:14:03 10° NE 04:19:10 47° SE 04:21:26 30° S
ADEOS 3.4 04:19:29 10° NNE 04:24:44 78° WNW 04:25:00 75° WSW
Cosmos 2360 Rocket 4.1 04:26:01 15° NNW 04:26:01 15° NNW 04:29:03 10° N
Nadezhda 3 Rocket 4.1 04:25:58 53° WNW 04:25:58 53° WNW 04:32:00 10° N
Cosmos-2242 4.2 04:28:38 31° N 04:28:38 31° N 04:31:01 10° N
COSMOS 2428 3.9 04:28:27 27° NNW 04:28:27 27° NNW 04:32:42 10° NNE
Meteor 2-10 Rocket 3.5 04:27:19 42° S 04:29:12 87° E 04:34:25 10° NNE
Cosmos 1943 Rocket 2.2 04:31:14 18° NNW 04:35:25 77° ENE 04:40:55 10° SE
Cosmos 2297 4.4 04:37:32 36° SSW 04:37:32 36° SSW 04:41:11 10° S
NOSS 3-1 (C) 4.4 04:36:43 41° WSW 04:37:06 41° WSW 04:44:55 10° S
Lacrosse 5 1.7 04:38:33 63° WNW 04:39:23 83° SW 04:44:27 10° SE
STARLINK-1162 4.3 04:40:54 37° ENE 04:40:54 37° ENE 04:43:00 10° ENE
STARLINK-1157 4.2 04:42:33 39° NE 04:42:33 39° NE 04:44:43 10° ENE
Cosmos 292 Rocket 3.9 04:43:28 52° SSW 04:43:28 52° SSW 04:47:22 10° S
STARLINK-1159 4.1 04:44:29 41° NE 04:44:29 41° NE 04:46:43 10° ENE
SJ-6F 4.4 04:39:33 10° N 04:43:22 68° NW 04:43:22 68° NW
SL-16 R/B 2.1 04:41:35 38° SSW 04:43:52 85° WNW 04:49:35 10° NNE
ADEOS Rocket 4.5 04:38:56 10° SE 04:44:45 40° ENE 04:51:11 10° N
STARLINK-1171 4.0 04:46:21 43° NE 04:46:21 43° NE 04:48:40 10° ENE
CZ-2C R/B 2.4 04:40:49 10° N 04:46:00 68° WNW 04:47:46 41° SW
STARLINK-1155 3.9 04:48:08 45° NE 04:48:08 45° NE 04:50:32 10° ENE
STARLINK-1153 4.1 04:49:50 38° NE 04:49:50 38° NE 04:51:52 10° ENE
STARLINK-1180 4.0 04:50:03 39° NE 04:50:03 39° NE 04:52:07 10° ENE
STARLINK-1166 3.7 04:50:07 47° NE 04:50:07 47° NE 04:52:36 10° ENE
STARLINK-1174 4.0 04:50:31 39° NE 04:50:31 39° NE 04:52:35 10° ENE
Cosmos 1339 Rocket 4.3 04:43:37 10° S 04:49:41 83° W 04:55:51 10° N
STARLINK-1139 4.0 04:50:44 39° NE 04:50:44 39° NE 04:52:48 10° ENE
STARLINK-1133 4.0 04:50:55 39° NE 04:50:55 39° NE 04:53:00 10° ENE
STARLINK-1151 4.0 04:51:10 39° NE 04:51:10 39° NE 04:53:16 10° ENE
STARLINK-1160 3.9 04:51:48 40° NE 04:51:48 40° NE 04:53:55 10° ENE
STARLINK-1161 3.9 04:52:01 40° NE 04:52:01 40° NE 04:54:08 10° ENE
STARLINK-1165 3.6 04:51:54 50° NE 04:51:54 50° NE 04:54:28 10° ENE
STARLINK-1145 3.9 04:52:14 40° NE 04:52:14 40° NE 04:54:22 10° ENE
STARLINK-1172 3.9 04:52:25 41° NE 04:52:25 41° NE 04:54:34 10° ENE
Cosmos 1980 4.3 04:51:20 35° WNW 04:51:46 35° NW 04:57:00 10° NNE
STARLINK-1182 3.9 04:52:54 41° NE 04:52:54 41° NE 04:55:03 10° ENE
STARLINK-1164 3.8 04:53:06 41° NE 04:53:06 41° NE 04:55:17 10° ENE
STARLINK-1168 3.8 04:53:18 41° NE 04:53:18 41° NE 04:55:29 10° ENE
STARLINK-1169 3.5 04:53:45 52° NE 04:53:45 52° NE 04:56:23 10° ENE
STARLINK-1183 3.8 04:53:58 42° NE 04:53:58 42° NE 04:56:10 10° ENE
STARLINK-1181 3.8 04:54:10 42° NE 04:54:10 42° NE 04:56:23 10° ENE
STARLINK-1196 3.7 04:54:49 43° NE 04:54:49 43° NE 04:57:04 10° ENE
STARLINK-1186 3.7 04:55:16 44° NE 04:55:16 44° NE 04:57:31 10° ENE
STARLINK-1185 3.7 04:55:29 44° NE 04:55:29 44° NE 04:57:44 10° ENE
SKYMED 2 3.6 04:50:35 10° SSE 04:54:55 82° ENE 04:59:18 10° NNW
STARLINK-1175 3.7 04:55:42 44° NE 04:55:42 44° NE 04:57:58 10° ENE
STARLINK-1178 3.4 04:55:35 54° NNE 04:55:35 54° NNE 04:58:19 10° ENE
STARLINK-1147 3.7 04:55:54 44° NE 04:55:54 44° NE 04:58:11 10° ENE
STARLINK-1146 3.6 04:56:07 45° NE 04:56:07 45° NE 04:58:25 10° ENE
STARLINK-1152 3.6 04:56:20 45° NE 04:56:20 45° NE 04:58:38 10° ENE
Cosmos 2369 Rocket 2.2 04:50:10 10° NNW 04:55:56 86° ENE 05:01:40 10° SSE
STARLINK-1195 3.6 04:56:33 45° NE 04:56:33 45° NE 04:58:52 10° ENE
STARLINK-1137 3.6 04:56:47 45° NE 04:56:47 45° NE 04:59:06 10° ENE
FENGYUN 3A 4.5 04:50:55 10° NNE 04:56:15 52° E 05:01:33 10° S
STARLINK-1142 3.6 04:57:00 45° NE 04:57:00 45° NE 04:59:20 10° ENE
STARLINK-1127 3.6 04:57:12 45° NE 04:57:12 45° NE 04:59:32 10° ENE
STARLINK-1184 3.6 04:57:26 46° NE 04:57:26 46° NE 04:59:46 10° ENE
STARLINK-1120 3.3 04:57:20 55° NNE 04:57:20 55° NNE 05:00:08 10° ENE
STARLINK-1193 3.6 04:57:39 46° NE 04:57:39 46° NE 05:00:00 10° ENE
STARLINK-1194 3.6 04:57:51 46° NE 04:57:51 46° NE 05:00:13 10° ENE
STARLINK-1131 3.3 04:59:19 56° NNE 04:59:19 56° NNE 05:02:11 10° ENE
Cosmos 2100 Rocket 4.3 04:54:04 10° N 05:00:19 68° ENE 05:06:28 10° SSE
Cosmos 1500 Rocket 3.5 04:56:15 10° N 05:00:45 87° E 05:05:09 10° S
STARLINK-1190 3.2 05:01:08 58° N 05:01:08 58° N 05:04:06 10° ENE
Okean O Rocket 3.8 04:57:50 10° NE 05:01:35 27° E 05:05:17 10° SSE
NOSS 2-1 (E) 2.9 05:01:57 64° WSW 05:02:26 82° NW 05:06:24 10° NE
USA 215 3.7 04:57:26 10° ENE 05:03:46 53° N 05:07:21 26° WNW
Meteor 2-3 Rocket 3.7 04:58:56 10° NNW 05:04:39 69° W 05:10:22 10° S
Cosmos 2263 4.3 04:59:51 10° NNW 05:05:36 78° ENE 05:11:16 10° SE
BREEZE-M DEB (TANK) 4.5 05:04:51 34° SW 05:06:44 68° SSE 05:17:48 10° E
Meteor PRIRODA 3.5 05:06:09 10° NNE 05:09:54 89° WNW 05:13:35 10° SSW
Cosmos 1743 Rocket 3.4 05:07:52 10° NNW 05:12:12 68° W 05:16:28 10° S
Cosmos 2333 Rocket 3.9 05:13:49 16° NW 05:14:59 17° NNW 05:18:37 10° N
Cosmos 1484 Rocket 2.7 05:11:13 10° N 05:15:08 73° WNW 05:19:06 10° SSW
CZ-4B R/B 2.6 05:12:57 10° N 05:16:39 56° WNW 05:18:23 28° SW
CZ-4C R/B 3.1 05:14:51 27° WNW 05:17:11 37° NNW 05:23:17 10° NE
STARLINK-1149 2.9 05:17:27 48° N 05:17:27 48° N 05:20:01 10° ENE
STARLINK-1129 3.2 05:17:57 46° NW 05:18:32 55° N 05:21:41 10° ENE
ALOS 2.3 05:14:16 10° NNE 05:18:59 81° ESE 05:23:39 10° SSW
Cosmos 1459 Rocket 4.0 05:13:30 10° N 05:19:42 85° E 05:25:56 10° S
STARLINK-1134 3.2 05:19:36 44° NW 05:20:14 55° N 05:23:24 10° ENE
STARLINK-1132 2.9 05:20:13 48° NNW 05:20:23 48° N 05:23:01 10° ENE
ATLAS CENTAUR R/B 1.8 05:19:22 32° W 05:21:08 50° NW 05:25:26 10° NE
H-2A R/B 2.8 05:17:21 10° N 05:21:33 49° WNW 05:25:10 14° SW
Cosmos 1656 Rocket 4.0 05:16:44 10° NNW 05:22:25 70° ENE 05:28:06 10° SE
STARLINK-1135 3.2 05:21:47 42° NW 05:22:31 55° N 05:25:41 10° ENE
STARLINK-1150 2.9 05:23:03 46° NNW 05:23:20 48° N 05:25:58 10° ENE
STARLINK-1163 2.9 05:24:05 45° NNW 05:24:25 48° N 05:27:04 10° ENE
STARLINK-1141 3.2 05:23:49 40° WNW 05:24:38 55° N 05:27:48 10° ENE
STARLINK-1173 2.9 05:25:53 43° NW 05:26:18 48° N 05:28:56 10° ENE
STARLINK-1140 3.3 05:25:39 38° WNW 05:26:34 55° N 05:29:43 10° ENE
STARLINK-1177 3.0 05:26:26 42° NW 05:26:53 48° N 05:29:32 10° ENE
PSLV R/B 3.5 05:23:39 10° NNE 05:27:23 80° WNW 05:31:08 10° SSW
Cosmos 1842 Rocket 3.6 05:23:19 10° SSW 05:27:42 55° WNW 05:32:08 10° N
Cosmos 614 Rocket 4.2 05:22:44 10° SSW 05:27:52 73° ESE 05:33:04 10° NNE
STARLINK-1167 3.0 05:27:50 41° NW 05:28:20 48° N 05:31:00 10° ENE
STARLINK-1156 3.3 05:27:35 36° WNW 05:28:34 54° N 05:31:44 10° ENE
STARLINK-1148 3.3 05:29:31 34° WNW 05:30:35 54° N 05:33:44 10° ENE
IDEFIX/ARIANE 42P 4.2 05:28:08 10° NNW 05:31:14 16° NW 05:31:15 16° NW
STARLINK-1158 3.3 05:31:26 32° WNW 05:32:37 54° N 05:35:47 10° ENE
Cosmos 1802 Rocket 4.1 05:26:31 10° N 05:32:59 88° E 05:39:26 10° S
STARLINK-1136 3.0 05:32:38 37° NW 05:33:19 48° N 05:35:57 10° ENE
Cosmos 1633 2.4 05:29:47 10° N 05:33:27 85° W 05:37:05 10° S
Meteor 1-27 4.1 05:30:15 10° SSW 05:35:46 66° WNW 05:41:20 10° N
Cosmos 1356 Rocket 4.2 05:34:33 25° WSW 05:35:49 30° WNW 05:39:27 10° N
Aureole 2 Rocket 2.2 05:37:36 22° NW 05:39:13 50° WSW 05:42:13 10° S
Cosmos 1455 4.4 05:41:33 11° NW 05:41:33 11° NW 05:41:58 10° NNW
NOAA 6 4.4 05:36:26 10° NNE 05:41:38 69° ESE 05:46:47 10° S
Meteor 1-31 Rocket 3.7 05:39:16 10° N 05:42:27 26° WNW 05:43:49 21° W
COSMO-SKYMED 1 3.1 05:39:06 10° SSW 05:43:04 35° W 05:47:06 10° NNW
Cosmos 2251 Rocket 4.2 05:41:43 17° WSW 05:45:08 33° NW 05:49:57 10° N
Cosmos 2237 Rocket 3.6 05:44:52 16° WNW 05:47:13 20° NW 05:51:19 10° NNE
Cosmos 921 Rocket 3.1 05:43:03 10° NNW 05:47:26 56° WSW 05:51:43 10° S
Cosmos 1340 4.5 05:44:42 10° N 05:48:10 33° ENE 05:51:37 10° SE
Cosmos 1633 Rocket 3.8 05:44:36 10° N 05:48:56 57° ENE 05:53:14 10° SSE
USA 116 3.5 05:45:52 10° S 05:48:56 41° W 05:51:55 10° NNW
Cosmos 1666 Rocket 3.9 05:45:12 10° N 05:49:41 70° ENE 05:54:05 10° SSE
GEOS 3 Rocket 4.0 05:52:09 10° NE 05:57:14 49° NW 06:02:21 10° WSW
SJ-12 4.3 05:54:09 10° N 05:58:03 41° WNW 06:01:56 10° SW
BREEZE-M DEB (TANK) 4.5 05:54:48 15° W 05:58:52 55° SSW 06:16:04 10° SE
STARLINK-1170 2.9 05:57:36 19° WNW 05:59:16 50° N 06:01:52 10° E
Cosmos 2221 3.1 05:55:27 10° SW 05:59:22 34° WNW 06:03:20 10° N
Cosmos 2219 Rocket 4.2 05:57:25 10° NW 05:59:29 12° NNW 06:01:34 10° N
Cosmos 1400 Rocket 3.5 05:56:02 10° S 05:59:58 59° E 06:04:00 10° NNE
SMAP 4.3 05:55:42 10° NNE 06:00:13 47° E 06:04:43 10° S
NOSS 2-1 (C) 4.2 05:59:47 16° W 06:02:05 29° NNW 06:05:43 10° NNE
Cosmos 1869 3.6 05:59:11 10° SSW 06:03:01 44° WNW 06:06:51 10° N
Cosmos 2016 Rocket 4.0 05:58:00 10° NNW 06:04:11 69° W 06:10:24 10° S
NOSS 2-1 (D) 4.3 06:03:45 14° W 06:06:11 28° NNW 06:09:46 10° NNE
MOS 1-B 4.4 06:01:22 10° N 06:07:05 59° WNW 06:12:46 10° SW
ATLAS 2AS CENTAUR R/B 3.6 05:59:35 10° NW 06:07:13 54° NNE 06:14:16 10° ESE
Cosmos 1763 Rocket 4.4 06:02:55 10° NNW 06:08:07 51° ENE 06:13:18 10° SE
METEOR-M 4.4 06:03:28 10° N 06:08:34 47° WNW 06:13:39 10° SW
Helios 1A Rocket 3.1 06:04:45 10° NNE 06:08:56 81° ESE 06:13:04 10° SSW
STARLINK-1162 3.2 06:13:05 12° WNW 06:15:56 58° N 06:19:02 10° E
Cosmos 1238 Rocket 4.0 06:11:22 10° NNW 06:17:31 52° W 06:22:51 10° SSW
STARLINK-1157 3.2 06:14:44 11° WNW 06:17:40 58° N 06:20:46 10° E
Cosmos 1943 Rocket 3.4 06:14:38 10° NW 06:18:31 20° W 06:22:24 10° SW
STARLINK-1159 3.2 06:16:42 11° WNW 06:19:43 59° N 06:22:49 10° E
Cosmos 1606 4.4 06:16:11 10° SSE 06:19:44 38° E 06:23:16 10° NNE
STARLINK-1179 2.7 06:18:16 11° WNW 06:20:41 56° N 06:23:13 10° E
STARLINK-1176 2.7 06:18:51 11° WNW 06:21:18 56° N 06:23:50 10° E
STARLINK-1171 3.2 06:18:32 10° WNW 06:21:37 59° N 06:24:43 10° E
Lacrosse 5 3.2 06:17:56 10° WNW 06:21:46 22° SW 06:25:36 10° S
Cosmos 1980 Rocket 4.4 06:18:41 10° N 06:22:09 16° NNE 06:25:36 10° ENE
Cosmos 2233 Rocket 4.1 06:16:39 10° N 06:22:57 89° W 06:29:16 10° S
CZ-2C R/B 4.2 06:20:43 10° NNW 06:23:19 14° NW 06:25:53 10° W
STARLINK-1155 3.2 06:20:22 10° WNW 06:23:30 60° N 06:26:36 10° E
STARLINK-1153 3.0 06:21:25 10° WNW 06:24:20 59° N 06:27:14 10° E
STARLINK-1180 3.0 06:21:39 10° WNW 06:24:34 59° N 06:27:29 10° E
STARLINK-1174 3.0 06:22:08 10° WNW 06:25:03 59° N 06:27:57 10° E
STARLINK-1139 3.0 06:22:22 10° WNW 06:25:16 60° N 06:28:11 10° E
STARLINK-1133 3.0 06:22:33 10° WNW 06:25:27 60° N 06:28:22 10° E
STARLINK-1166 3.2 06:22:30 10° WNW 06:25:37 61° N 06:28:44 10° E
STARLINK-1151 3.0 06:22:48 10° WNW 06:25:43 60° N 06:28:38 10° E
STARLINK-1160 3.0 06:23:28 10° WNW 06:26:23 60° N 06:29:17 10° E
STARLINK-1161 3.0 06:23:41 10° WNW 06:26:36 60° N 06:29:30 10° E
STARLINK-1145 3.0 06:23:55 10° WNW 06:26:50 60° N 06:29:44 10° E
STARLINK-1172 3.0 06:24:07 10° WNW 06:27:01 60° N 06:29:56 10° E
STARLINK-1165 3.2 06:24:18 10° WNW 06:27:27 61° N 06:30:33 10° E
STARLINK-1182 3.0 06:24:37 10° WNW 06:27:32 60° NNE 06:30:26 10° E
STARLINK-1164 3.0 06:24:50 10° WNW 06:27:44 61° N 06:30:38 10° E
STARLINK-1168 3.0 06:25:01 10° WNW 06:27:57 61° NNE 06:30:51 10° E
STARLINK-1183 3.0 06:25:43 10° WNW 06:28:38 61° NNE 06:31:32 10° E
STARLINK-1181 3.0 06:25:55 10° WNW 06:28:50 61° N 06:31:45 10° E
SL-16 R/B 3.4 06:24:24 10° W 06:28:50 23° NW 06:33:17 10° NNE
Cosmos 1470 Rocket 3.8 06:24:50 10° N 06:29:18 82° E 06:33:47 10° SSE
STARLINK-1169 3.1 06:26:13 10° WNW 06:29:22 62° N 06:32:29 10° E
STARLINK-1196 3.0 06:26:37 10° WNW 06:29:32 61° N 06:32:26 10° E
ADEOS Rocket 3.4 06:24:10 10° S 06:30:09 48° W 06:36:51 10° NNW
Cosmos 1805 Rocket 4.5 06:26:54 10° NNW 06:30:31 26° W 06:34:07 10° SW
